CFG1HR EGKK-EDDF

Flight info

Callsign CFG1HR
Flight time 1h 3m
Altitude 33000
Route MIMFO Y312 DVR UL9 KONAN UL607 KOK DCT SPI T180 NIVNU T847 IMCOM IMCOM1A
Aircraft E190/M-SDE1E2E3FGIJ1RWY/LB1

Departure

Time 2026-05-04 06:20
Airport London Gatwick Airport (EGKK)

Arrival

Time 2026-05-04 07:24
Airport Frankfurt Main Airport (EDDF)
Time Latitude Longitude Altitude Speed Heading
2026-05-04 05:48 51.16024 -0.17052 207 ft 0 kts 333°
2026-05-04 06:14 51.15959 -0.16961 209 ft 2 kts 249°
2026-05-04 06:14 51.15962 -0.16948 208 ft 0 kts 249°
2026-05-04 06:16 51.15952 -0.16975 213 ft 6 kts 234°
2026-05-04 06:16 51.15905 -0.17047 202 ft 13 kts 213°
2026-05-04 06:17 51.15823 -0.17103 207 ft 13 kts 225°
2026-05-04 06:17 51.15797 -0.17255 205 ft 15 kts 259°
2026-05-04 06:17 51.15773 -0.17431 208 ft 17 kts 257°
2026-05-04 06:17 51.15675 -0.17483 206 ft 18 kts 169°
2026-05-04 06:18 51.15550 -0.17438 204 ft 19 kts 166°
2026-05-04 06:18 51.15412 -0.17391 205 ft 21 kts 168°
2026-05-04 06:18 51.15268 -0.17334 212 ft 22 kts 154°
2026-05-04 06:20 51.14738 -0.19608 572 ft 157 kts 259°
2026-05-04 06:20 51.14502 -0.21533 1126 ft 203 kts 259°
2026-05-04 06:21 51.14533 -0.30601 3956 ft 239 kts 315°
2026-05-04 06:21 51.15977 -0.31844 3954 ft 241 kts 352°
2026-05-04 06:22 51.17577 -0.31335 4590 ft 239 kts 29°
2026-05-04 06:22 51.18836 -0.29596 5597 ft 242 kts 55°
2026-05-04 06:25 51.24460 0.12168 15749 ft 349 kts 78°
2026-05-04 06:25 51.25025 0.15962 16646 ft 353 kts 78°
2026-05-04 06:26 51.25518 0.19763 17464 ft 356 kts 87°
2026-05-04 06:26 51.25428 0.23713 18337 ft 357 kts 99°
2026-05-04 06:26 51.25087 0.27670 19041 ft 363 kts 101°
2026-05-04 06:26 51.24724 0.31693 19712 ft 369 kts 101°
2026-05-04 06:27 51.23359 0.48441 22246 ft 391 kts 100°
2026-05-04 06:28 51.23012 0.52789 22836 ft 397 kts 100°
2026-05-04 06:28 51.22676 0.57141 23454 ft 403 kts 100°
2026-05-04 06:28 51.22328 0.61600 24054 ft 406 kts 101°
2026-05-04 06:28 51.21979 0.66079 24694 ft 408 kts 101°
2026-05-04 06:29 51.21624 0.70595 25329 ft 411 kts 102°
2026-05-04 06:29 51.21264 0.75133 25943 ft 413 kts 102°
2026-05-04 06:29 51.20900 0.79697 26521 ft 416 kts 103°
2026-05-04 06:29 51.20533 0.84286 27083 ft 419 kts 103°
2026-05-04 06:30 51.20161 0.88914 27604 ft 421 kts 103°
2026-05-04 06:30 51.19784 0.93560 28127 ft 424 kts 104°
2026-05-04 06:30 51.19403 0.98238 28572 ft 427 kts 104°
2026-05-04 06:30 51.19017 1.02950 29059 ft 430 kts 105°
2026-05-04 06:31 51.18632 1.07668 29678 ft 429 kts 105°
2026-05-04 06:31 51.18245 1.12374 30252 ft 429 kts 105°
2026-05-04 06:31 51.17857 1.17044 30586 ft 432 kts 105°
2026-05-04 06:31 51.17457 1.21833 30904 ft 436 kts 105°
2026-05-04 06:32 51.17055 1.26647 31209 ft 440 kts 105°
2026-05-04 06:33 51.15036 1.61272 33562 ft 450 kts 99°
2026-05-04 06:34 51.14796 1.66245 33927 ft 450 kts 99°
2026-05-04 06:34 51.14552 1.71214 34171 ft 451 kts 99°
2026-05-04 06:34 51.14305 1.76187 34403 ft 450 kts 99°
2026-05-04 06:34 51.14056 1.81109 34644 ft 452 kts 99°
2026-05-04 06:35 51.13799 1.86169 34897 ft 453 kts 99°
2026-05-04 06:36 51.11926 2.21632 34990 ft 461 kts 99°
2026-05-04 06:37 51.11373 2.31721 34998 ft 461 kts 100°
2026-05-04 06:37 51.10806 2.41888 34971 ft 462 kts 100°
2026-05-04 06:38 51.10229 2.52085 34963 ft 462 kts 100°
2026-05-04 06:40 51.05605 2.86571 34963 ft 455 kts 111°
2026-05-04 06:40 51.05019 2.89773 34970 ft 456 kts 111°
2026-05-04 06:40 51.03252 2.99439 34969 ft 455 kts 111°
2026-05-04 06:41 51.01477 3.09103 34972 ft 455 kts 111°
2026-05-04 06:41 50.99696 3.18751 34962 ft 455 kts 112°
2026-05-04 06:42 50.97908 3.28391 34965 ft 455 kts 112°
2026-05-04 06:44 50.90672 3.66889 34967 ft 456 kts 112°
2026-05-04 06:44 50.88842 3.76506 34952 ft 456 kts 112°
2026-05-04 06:45 50.87000 3.86141 34966 ft 457 kts 112°
2026-05-04 06:45 50.85151 3.95758 34978 ft 456 kts 112°
2026-05-04 06:46 50.83306 4.05317 34978 ft 456 kts 112°
2026-05-04 06:46 50.81437 4.14923 34986 ft 456 kts 112°
2026-05-04 06:48 50.73956 4.53022 34990 ft 454 kts 112°
2026-05-04 06:50 50.66375 4.91020 34972 ft 454 kts 113°
2026-05-04 06:51 50.64441 5.00490 34977 ft 454 kts 113°
2026-05-04 06:51 50.62524 5.09956 34994 ft 454 kts 113°
2026-05-04 06:52 50.60608 5.19437 34980 ft 454 kts 113°
2026-05-04 06:52 50.58671 5.28911 34985 ft 454 kts 113°
2026-05-04 06:53 50.56721 5.38353 34984 ft 453 kts 113°
2026-05-04 06:53 50.54786 5.47736 34990 ft 453 kts 113°
2026-05-04 06:54 50.52821 5.57155 34996 ft 453 kts 114°
2026-05-04 06:54 50.50855 5.66600 34982 ft 455 kts 112°
2026-05-04 06:55 50.49009 5.76110 34981 ft 455 kts 111°
2026-05-04 06:55 50.47198 5.85642 34979 ft 455 kts 111°
2026-05-04 06:57 50.39846 6.23932 31725 ft 463 kts 112°
2026-05-04 06:58 50.38906 6.28773 31111 ft 464 kts 112°
2026-05-04 06:58 50.37958 6.33639 30499 ft 466 kts 112°
2026-05-04 06:58 50.37010 6.38520 29871 ft 468 kts 111°
2026-05-04 06:58 50.36086 6.43417 29164 ft 469 kts 109°
2026-05-04 06:59 50.35611 6.48516 28427 ft 475 kts 97°
2026-05-04 06:59 50.35464 6.53631 27754 ft 466 kts 97°
2026-05-04 06:59 50.35266 6.58573 27104 ft 457 kts 98°
2026-05-04 06:59 50.35009 6.63493 26473 ft 449 kts 99°
2026-05-04 07:01 50.31211 6.95421 22424 ft 406 kts 124°
2026-05-04 07:01 50.29819 6.99240 21868 ft 404 kts 124°
2026-05-04 07:02 50.28473 7.03081 21315 ft 401 kts 121°
2026-05-04 07:02 50.27308 7.06996 20768 ft 392 kts 118°
2026-05-04 07:02 50.26224 7.10794 20243 ft 384 kts 118°
2026-05-04 07:02 50.25126 7.14564 19772 ft 378 kts 119°
2026-05-04 07:03 50.24025 7.18283 19317 ft 376 kts 119°
2026-05-04 07:03 50.22919 7.21977 18877 ft 375 kts 119°
2026-05-04 07:03 50.21814 7.25664 18442 ft 373 kts 119°
2026-05-04 07:03 50.20712 7.29331 17973 ft 371 kts 119°
2026-05-04 07:04 50.19621 7.32959 17487 ft 368 kts 119°
2026-05-04 07:04 50.18617 7.36631 16989 ft 367 kts 114°
2026-05-04 07:04 50.17770 7.40371 16516 ft 363 kts 112°
2026-05-04 07:04 50.16941 7.44062 16068 ft 359 kts 113°
2026-05-04 07:05 50.16093 7.47720 15628 ft 357 kts 113°
2026-05-04 07:05 50.15237 7.51340 15182 ft 355 kts 114°
2026-05-04 07:05 50.14374 7.54950 14761 ft 353 kts 114°
2026-05-04 07:05 50.13517 7.58515 14342 ft 351 kts 114°
2026-05-04 07:06 50.11819 7.65560 13494 ft 347 kts 114°
2026-05-04 07:06 50.11151 7.69159 13058 ft 348 kts 100°
2026-05-04 07:06 50.10985 7.72920 12749 ft 348 kts 94°
2026-05-04 07:07 50.10943 7.76692 12436 ft 348 kts 93°
2026-05-04 07:08 50.10487 8.02282 10313 ft 310 kts 94°
2026-05-04 07:09 50.10416 8.05589 10034 ft 301 kts 94°
2026-05-04 07:09 50.10344 8.08810 9758 ft 294 kts 94°
2026-05-04 07:09 50.10260 8.11939 9476 ft 285 kts 95°
2026-05-04 07:09 50.10184 8.14991 9206 ft 279 kts 94°
2026-05-04 07:10 50.10130 8.17936 8951 ft 273 kts 94°
2026-05-04 07:10 50.10072 8.20848 8753 ft 265 kts 94°
2026-05-04 07:12 50.10035 8.39407 7568 ft 237 kts 72°
2026-05-04 07:12 50.10617 8.41815 7445 ft 237 kts 68°
2026-05-04 07:12 50.11240 8.44200 7289 ft 238 kts 68°
2026-05-04 07:12 50.11838 8.46574 7165 ft 238 kts 69°
2026-05-04 07:13 50.12429 8.48994 7026 ft 238 kts 70°
2026-05-04 07:13 50.13007 8.51412 6882 ft 238 kts 70°
2026-05-04 07:13 50.13582 8.53821 6736 ft 236 kts 70°
2026-05-04 07:14 50.15854 8.63393 6126 ft 234 kts 70°
2026-05-04 07:14 50.16417 8.65757 5971 ft 232 kts 70°
2026-05-04 07:15 50.16987 8.68122 5810 ft 231 kts 70°
2026-05-04 07:15 50.17542 8.70441 5662 ft 231 kts 70°
2026-05-04 07:15 50.18097 8.72778 5511 ft 229 kts 71°
2026-05-04 07:15 50.18644 8.75109 5393 ft 227 kts 70°
2026-05-04 07:16 50.19192 8.77424 5294 ft 227 kts 70°
2026-05-04 07:16 50.19738 8.79736 5195 ft 227 kts 70°
2026-05-04 07:16 50.20280 8.82051 5099 ft 228 kts 70°
2026-05-04 07:16 50.20828 8.84374 4999 ft 228 kts 71°
2026-05-04 07:17 50.21070 8.86773 4858 ft 224 kts 101°
2026-05-04 07:17 50.20432 8.88892 4727 ft 215 kts 139°
2026-05-04 07:17 50.19153 8.89999 4653 ft 210 kts 165°
2026-05-04 07:17 50.17768 8.90729 4586 ft 211 kts 163°
2026-05-04 07:18 50.16369 8.91491 4466 ft 213 kts 163°
2026-05-04 07:18 50.14992 8.92219 4328 ft 210 kts 167°
2026-05-04 07:18 50.13571 8.92203 4139 ft 205 kts 202°
2026-05-04 07:18 50.12411 8.90925 4021 ft 206 kts 224°
2026-05-04 07:19 50.11471 8.89272 4079 ft 203 kts 234°
2026-05-04 07:19 50.10791 8.87314 4092 ft 204 kts 247°
2026-05-04 07:19 50.10300 8.85231 3934 ft 210 kts 250°
2026-05-04 07:19 50.09796 8.83084 3641 ft 211 kts 248°
2026-05-04 07:20 50.09267 8.80956 3395 ft 212 kts 249°
2026-05-04 07:20 50.08772 8.78835 3089 ft 215 kts 250°
2026-05-04 07:20 50.08283 8.76698 2853 ft 203 kts 249°
2026-05-04 07:20 50.07806 8.74718 2545 ft 187 kts 248°
2026-05-04 07:22 50.05611 8.63260 1014 ft 144 kts 250°
2026-05-04 07:22 50.05258 8.61813 818 ft 141 kts 249°
2026-05-04 07:23 50.04911 8.60374 638 ft 140 kts 248°
2026-05-04 07:23 50.04583 8.58992 434 ft 134 kts 248°
2026-05-04 07:23 50.04273 8.57696 363 ft 121 kts 250°
2026-05-04 07:23 50.04098 8.56963 363 ft 86 kts 249°
2026-05-04 07:24 50.03997 8.56325 358 ft 22 kts 279°
2026-05-04 07:24 50.04033 8.56151 356 ft 9 kts 321°
2026-05-04 07:24 50.04046 8.56141 352 ft 3 kts 338°
2026-05-04 07:24 50.04077 8.56138 350 ft 10 kts 13°
2026-05-04 07:25 50.04113 8.56221 356 ft 10 kts 69°
2026-05-04 07:26 50.04408 8.57460 362 ft 21 kts 69°
2026-05-04 07:27 50.04460 8.57672 365 ft 21 kts 69°
2026-05-04 07:27 50.04499 8.57841 367 ft 15 kts 69°
2026-05-04 07:27 50.04536 8.57992 365 ft 14 kts 70°
2026-05-04 07:27 50.04571 8.58139 362 ft 14 kts 69°
2026-05-04 07:28 50.04602 8.58269 370 ft 11 kts 69°
2026-05-04 07:28 50.04631 8.58389 371 ft 13 kts 69°
2026-05-04 07:28 50.04668 8.58544 368 ft 17 kts 69°
2026-05-04 07:28 50.04714 8.58723 367 ft 19 kts 66°
2026-05-04 07:29 50.04761 8.58910 372 ft 18 kts 69°
2026-05-04 07:29 50.04802 8.59081 371 ft 16 kts 70°
2026-05-04 07:29 50.04845 8.59141 366 ft 6 kts 349°
2026-05-04 07:29 50.04891 8.59116 368 ft 8 kts 339°
2026-05-04 07:30 50.04901 8.59110 368 ft 0 kts 340°